{"data":{"norad_id":63240,"epoch":"2026-09-22T16:08:40.603488Z","epoch_age_seconds":121057,"freshness":"FRESH","line1":"1 63240U 25052AG  26265.67269217  .00011637  00000+0  34759-3 0  9998","line2":"2 63240  97.3735 160.3391 0007034 144.4277 215.7436 15.34737911 84952","mean_motion":15.34737911,"eccentricity":0.0007034,"inclination_deg":97.3735,"raan_deg":160.3391,"arg_perigee_deg":144.4277,"mean_anomaly_deg":215.7436,"bstar":0.00034759,"rev_number":8495,"period_min":93.82709514628,"perigee_km":456.88794108418,"apogee_km":466.51022248403,"semimajor_km":6839.8360817841,"source":"CELESTRAK","updated_at":"2026-09-23T09:00:21.906315Z"}}